EHI
0 0 0 0 0 0 0 0 0 0 0 0 0 0 0 0 0 0 0 0 0 0 0 0 0 0 0 0 0 0 0 0 0 0 0 0 0 0 0 0 0 0 0
0 0 0 0 0 0 0 0 0 0 0 0 0 0 0 0 0 0 0 0 0 0 0 0 0 0 0 0 0 0 0 0 0 0 0 0 0 0 0 0 0 0 0
0 0 0 0 0 0 0 0 0 0 0 0 0 0 0 0 0 0 0 0 0 0 0 0 0 0 0 0 0 0 0 0 0 0 0 0 0 0 0 0 0 0 0
0 0 0 0 0 0 0 0 0 0 0 0 0 0 0 0 0 0 0 0 0 0 0 0 0 0 0 0 0 0 0 0 0 0 0 0 0 0 0 0 0 0 0
0 0 0 0 0 0 0 0 0 0 0 0 0 0 0 0 0 0 0 0 0 0 0 0 0 0 0 0 0 0 0 0 0 0 0 0 0 0 0 0 0 0 0
0 0 0 0 0 0 0 0 0 0 0 0 0 0 0 0 0 0 0 0 0 0 0 0 0 0 0 0 0 0 0 0 0 0 0 0 0 0 0 0 0 0 0
0 0 0 0 0 0 0 0 0 0 0 0 0 0 0 0 0 0 0 0 0 0 0 0 0 0 0 0 0 0 0 0 0 0 0 0 0 0 0 0 0 0 0
0 0 0 0 0 0 0 0 0 0 0 0 0 0 0 0 0 0 0 0 0 0 0 0 0 0 0 0 0 0 0 0 0 0 0 0 0 0 0 0 0 0 0
0 0 0 0 0 0 0 0 0 0 0 0 0 0 0 0 0 0 0 0 0 0 0 0 0 0 0 0 0 0 0 0 0 0 0 0 0 0 0 0 0 0 0
0 0 0 0 0 0 0 0 0 0 0 0 0 0 0 0 0 0 0 0 0 0 0 0 0 0 0 0 0 0 0 0 0 0 0 1 0 0 0 0 0 0 0
0 0 0 0 0 0 0 0 0 0 0 0 0 0 0 0 0 0 0 0 0 0 0 0 0 0 0 0 0 0 0 0 0 0 0 0 0 0 0 0 0 0 0
0 0 0 0 0 0 0 0 0 0 0 0 0 0 0 0 0 0 0 0 0 0 0 0 0 0 0 0 0 0 0 0 0 0 0 0 0 0 0 0 0 0 0
0 0 0 0 0 0 0 0 0 0 0 0 0 0 0 0 0 0 0 0 0 0 0 0 0 0 0 0 0 0 0 0 0 0 0 0 0 0 0 0 0 0 0
0 0 0 0 0 0 0 0 0 0 0 0 0 0 0 0 0 0 0 0 0 0 0 0 0 0 0 0 0 0 0 0 0 0 0 0 0 0 0 0 0 0 0
0 0 0 0 0 0 0 0 0 0 0 0 0 0 0 0 0 0 0 0 0 0 0 0 0 0 0 0 0 0 0 0 0 0 0 0 0 0 0 0 0 0 0
0 0 0 0 0 0 0 0 0 0 0 0 0 0 0 0 0 0 0 0 0 0 0 0 0 0 0 0 0 0 0 0 0 0 0 0 0 0 0 0 0 0 0
0 0 0 0 0 0 0 0 0 0 0 0 0 0 0 0 0 0 0 0 0 0 0 0 0 0 0 0 0 0 0 0 0 0 0 0 0 0 0 0 0 0 0
0 0 0 0 0 0 0 0 0 0 0 0 0 0 0 0 0 0 0 0 0 0 0 0 0 0 0 0 0 0 0 0 0 0 0 0 0 0 0 0 0 0 0
0 0 0 0 0 0 0 0 0 0 0 0 0 0 0 0 0 0 0 0 0 0 0 0 0 0 0 0 0 0 0 0 0 0 0 0 0 0 0 0 0 0 0
0 0 0 0 0 0 0 0 0 0 0 0 0 0 0 0 0 0 0 0 0 0 0 0 0 0 0 0 0 0 0 0 0 0 0 0 0 0 0 0 0 0 0
0 0 0 0 0 0 0 0 0 0 0 0 0 0 0 0 0 0 0 0 0 0 0 0 0 0 0 0 0 0 0 0 0 0 0 0 0 0 0 0 0 0 0
0 0 0 0 0 0 0 0 0 0 0 0 0 0 0 0 0 0 0 0 0 0 0 0 0 0 0 0 0 0 0 0 0 0 0 0 0 0 0 0 0 0 0
0 0 0 0 0 0 0 0 0 0 0 0 0 0 0 0 0 0 0 0 0 0 0 0 0 0 0 0 0 0 0 0 0 0 0 0 0 0 0 0 0 0 0
0 0 0 0 0 0 0 0 0 0 0 0 0 0 0 0 0 0 0 0 0 0 0 0 0 0 0 0 0 0 0 0 0 0 0 0 0 0 0 0 0 0 0
0 0 0 0 0 0 0 0 0 0 0 0 0 0 0 0 0 0 0 0 0 0 0 0 0 0 0 0 0 0 0 0 0 0 0 0 0 0 0 0 0 0 0
0 0 0 0 0 0 0 0 0 0 0 0 0 0 0 0 0 0 0 0 0 0 0 0 0 0 0 0 0 0 0 0 0 0 0 0 0 0 0 0 0 0 0
Wind_Speed
2 3 2 2 2 2 2 2 2 3 3 3 3 4 5 5 5 4 3 9 10 9 9 10 10 9 9 9 9 8 8 8 8 8 8 8 8 8 8 9 8 8 8
2 2 2 2 2 2 2 2 2 2 2 3 4 4 4 4 4 4 3 5 9 10 9 9 9 9 9 9 8 8 8 8 7 7 8 8 7 7 8 8 8 8 8
3 2 2 2 2 2 2 2 2 2 3 3 4 4 4 4 4 4 4 3 4 8 9 9 9 9 9 9 8 8 8 7 8 8 7 7 7 7 7 7 7 7 7
3 2 2 2 2 1 2 2 2 2 2 2 3 3 3 3 4 4 4 4 3 3 6 10 10 10 9 9 8 8 7 7 7 8 7 8 7 7 6 6 7 7 7
3 2 2 2 2 1 1 2 2 2 2 2 2 2 3 3 3 4 4 4 4 4 3 6 9 10 10 9 9 9 8 7 6 7 7 7 8 8 7 7 7 7 7
2 2 2 2 2 2 2 2 2 2 2 1 2 3 2 2 2 3 3 3 4 5 4 5 4 6 10 10 10 9 9 9 7 7 6 6 7 8 8 8 8 7 6
2 2 2 2 2 2 2 2 2 2 1 1 2 2 2 2 3 2 2 3 4 4 4 5 3 3 4 9 11 10 9 9 8 7 6 5 6 6 7 7 7 7 7
1 2 3 2 2 2 2 2 2 1 1 1 1 1 1 1 2 2 2 3 3 3 4 4 4 4 4 3 7 10 10 9 8 8 7 6 6 5 6 6 6 6 7
1 1 2 2 2 2 2 2 2 2 1 0 1 2 2 2 0 1 2 2 3 3 2 3 4 4 4 4 4 8 10 9 8 8 7 7 6 6 4 5 6 6 7
1 1 1 2 2 2 2 2 2 1 2 1 0 1 1 1 2 0 1 1 2 2 2 2 3 3 4 3 4 7 9 9 9 8 8 8 6 5 5 6 6 6 7
1 1 1 2 2 2 2 2 2 1 1 1 1 0 1 1 1 2 1 1 1 1 1 1 2 2 3 3 2 5 8 8 8 8 8 8 9 8 6 6 6 5 5
1 1 1 1 1 2 2 2 2 2 1 1 1 1 1 1 1 1 1 1 1 1 1 1 1 1 2 2 4 6 6 7 7 7 7 8 8 9 9 7 6 6 6
1 2 1 1 1 1 2 2 2 2 2 2 1 1 0 0 0 0 1 1 1 1 1 0 1 1 1 1 2 5 5 5 6 6 6 7 7 8 8 8 7 7 7
2 2 2 2 2 2 2 2 2 2 2 2 1 1 1 0 0 1 1 1 0 1 1 1 0 0 1 1 2 3 2 5 5 5 6 6 6 6 7 7 7 6 6
2 2 2 2 2 2 2 2 2 2 2 2 2 2 1 1 0 0 1 1 2 2 2 2 1 1 1 0 2 1 1 4 4 5 5 5 5 6 6 6 6 6 6
2 2 2 2 2 2 2 2 2 2 2 1 1 1 1 1 1 0 0 0 1 2 2 2 1 1 1 1 2 2 2 5 4 5 5 5 5 5 5 5 5 6 6
2 3 3 3 2 2 2 2 2 2 3 2 1 2 1 1 1 1 1 0 0 1 2 2 1 1 1 1 2 2 2 2 2 5 5 5 5 5 4 4 4 5 6
2 3 3 3 3 3 3 3 3 3 3 3 3 3 3 2 2 1 1 1 1 1 2 3 2 1 2 2 2 2 2 2 2 5 6 6 6 5 5 4 4 5 6
2 2 3 4 3 3 3 3 3 3 3 3 3 3 3 3 3 2 2 2 2 2 1 2 2 1 1 2 2 2 2 2 3 4 5 6 6 6 5 5 5 5 5
3 3 3 3 3 3 3 3 3 3 3 3 3 3 3 4 4 3 3 3 3 2 2 2 2 2 2 2 1 2 2 2 2 3 4 5 6 7 6 6 6 6 5
3 3 3 3 3 3 4 4 4 3 3 3 3 4 4 5 6 5 4 3 3 3 2 2 3 2 2 2 2 2 3 2 3 2 2 3 3 2 3 5 6 7 6
3 3 3 3 4 3 6 7 5 3 3 4 4 3 4 5 7 9 9 8 6 5 4 4 3 4 4 3 2 2 2 2 3 1 1 3 2 3 3 3 6 8 7
3 3 3 3 4 5 7 8 7 4 4 4 3 3 3 4 5 4 6 8 8 9 8 5 5 5 4 4 3 4 3 4 4 2 2 4 3 4 3 4 8 9 8
3 3 4 4 4 5 8 8 8 4 4 4 4 4 4 4 4 5 4 5 5 5 7 5 5 5 4 4 4 5 4 3 3 3 2 4 3 3 4 3 8 9 9
3 3 3 4 4 5 8 8 7 3 3 4 4 5 5 5 8 9 5 5 5 5 7 9 9 8 9 9 6 3 3 3 4 4 2 3 3 3 3 3 5 7 7
3 3 4 4 4 5 7 9 8 3 4 4 4 5 8 8 10 10 6 5 6 5 4 5 6 7 6 7 8 5 4 4 3 4 3 2 2 1 3 3 2 2 3
Wind_Direction
88 83 75 68 57 54 56 45 40 38 36 37 41 49 49 49 53 54 45 43 43 44 47 47 49 52 51 51 50 54 58 59 63 64 62 60 57 52 50 51 51 51 52
84 91 83 72 59 50 43 44 44 44 39 42 44 44 46 47 53 54 53 40 40 42 45 45 46 47 47 47 48 51 54 59 59 59 58 57 55 51 48 50 49 46 46
80 85 90 82 63 53 45 49 45 48 50 47 44 43 44 42 44 51 51 46 37 38 43 45 45 45 45 43 43 47 51 57 57 55 54 53 53 52 52 49 47 43 41
89 91 94 92 72 62 61 66 62 54 46 45 39 37 38 35 38 47 51 49 44 40 38 44 44 44 43 42 39 40 47 52 55 54 51 50 50 49 52 48 48 43 37
100 102 104 99 90 76 71 66 62 77 67 54 51 49 43 39 36 42 48 47 47 47 41 40 40 42 40 39 38 39 44 50 54 55 52 49 48 47 50 49 48 42 34
107 105 108 96 96 96 78 74 77 68 79 73 63 54 46 55 54 44 44 48 48 46 42 39 27 31 38 38 38 39 43 50 51 53 52 47 47 46 48 46 43 38 34
108 115 110 116 107 113 110 97 99 96 69 69 74 54 27 53 70 52 45 53 49 44 44 40 27 27 28 36 36 37 36 40 44 44 45 44 43 42 43 41 38 36 31
107 119 121 128 125 121 108 100 99 100 90 86 103 108 81 8 19 38 40 50 47 37 43 42 34 35 35 30 28 32 30 29 34 39 38 38 37 33 38 36 35 37 35
106 110 126 128 130 125 134 133 126 119 146 257 73 121 144 187 3 4 31 49 49 44 36 34 38 34 39 35 22 25 27 26 27 29 30 30 29 30 27 29 32 36 30
132 117 131 130 132 131 133 140 121 117 133 162 3 43 106 129 139 29 338 24 42 42 36 30 33 31 38 37 28 28 28 23 27 26 24 24 20 17 23 24 26 34 31
152 140 134 138 142 137 136 141 134 114 127 149 156 98 34 20 114 152 213 294 355 360 21 27 42 31 32 35 22 26 28 20 19 19 21 22 23 16 11 14 13 18 20
165 146 130 134 149 147 151 159 154 144 148 136 135 127 130 157 194 156 177 210 252 295 317 13 65 40 35 35 19 21 21 15 13 10 12 17 18 14 11 10 10 12 13
185 188 167 175 178 174 171 158 152 163 162 154 158 168 138 161 178 146 146 200 252 266 255 353 47 33 38 44 5 6 7 5 2 359 360 7 10 8 6 5 3 4 5
192 180 175 183 196 197 186 171 166 180 170 170 170 154 133 117 92 130 156 159 237 273 243 241 289 51 15 354 336 353 342 349 349 348 348 355 360 1 0 360 359 356 359
181 177 187 197 199 200 197 181 180 179 169 172 174 169 167 178 152 109 113 153 171 220 246 224 215 269 290 296 317 321 312 320 331 335 338 341 346 348 350 350 350 349 345
181 182 191 197 195 195 194 177 176 175 163 174 171 168 184 186 167 151 170 189 177 210 240 227 230 248 273 300 297 308 296 305 309 312 316 323 328 331 332 333 334 333 332
194 192 194 196 193 189 185 181 184 179 175 180 187 181 205 199 183 191 194 209 231 209 244 269 252 249 255 271 292 287 282 277 286 295 300 304 309 313 314 318 327 328 326
205 197 190 192 196 196 191 193 196 193 188 191 198 196 205 210 207 214 205 220 232 229 225 258 261 241 251 252 259 270 285 286 273 280 285 292 295 297 297 301 306 312 316
207 200 190 192 196 201 202 202 200 203 205 205 202 204 209 206 212 213 213 221 230 244 227 238 260 256 259 259 270 275 279 284 284 284 284 288 291 290 287 289 294 301 307
206 203 203 199 196 202 210 207 205 207 212 216 213 213 215 217 219 215 223 223 225 227 222 228 247 253 252 257 250 261 279 273 281 294 284 288 291 291 288 288 290 294 300
217 208 201 201 202 205 212 205 208 213 215 218 219 218 223 231 237 236 238 222 220 224 226 229 242 252 247 239 239 248 269 280 279 276 281 286 290 287 287 287 284 284 286
218 212 204 201 210 221 230 224 217 211 215 220 228 228 229 234 241 247 250 245 237 229 226 228 234 236 238 237 240 250 260 274 279 266 278 282 271 269 264 256 274 285 286
219 221 220 211 216 227 235 232 228 217 213 220 227 230 240 239 246 245 250 249 247 250 247 239 236 239 236 229 226 243 243 249 261 257 270 273 260 264 261 264 271 279 283
224 223 225 222 224 232 236 236 235 226 217 222 226 226 230 233 236 239 240 244 242 245 248 247 239 243 244 230 223 235 240 254 278 264 237 263 263 263 274 268 271 276 279
229 228 228 223 225 235 237 238 238 220 222 232 236 235 232 228 238 243 241 241 250 253 256 255 252 252 254 255 246 233 224 243 267 263 231 242 264 277 278 269 266 270 277
235 238 241 231 229 233 238 240 239 221 224 234 237 236 239 240 244 242 232 228 240 248 249 254 253 253 250 248 248 231 214 226 250 261 236 226 249 272 285 279 271 274 279